Theta_e
342 346 348 352 351 350 348 346 345 344 345 341 341 340 341 343 344 346 348 347 347 347 348 344 344 343 339 339 340 340 339 339 339 335 334 336 340 340 340 342 343 344 348
342 346 348 349 349 347 346 345 346 345 345 344 343 344 343 343 345 346 347 348 347 347 345 346 344 343 340 337 337 340 337 337 338 332 331 327 330 335 341 339 344 342 344
340 344 346 345 347 344 343 345 346 345 345 344 344 342 341 341 342 343 344 347 349 348 346 346 345 344 343 340 339 339 337 335 335 339 332 325 322 326 334 331 337 341 341
343 345 346 345 346 346 346 345 346 344 343 344 344 339 335 332 338 340 342 346 348 347 346 346 345 344 345 340 341 342 339 336 331 335 338 334 330 324 323 332 329 339 339
343 344 345 345 347 349 348 346 347 345 344 346 345 339 335 338 339 340 341 342 342 344 345 344 344 344 344 342 341 340 337 337 335 334 333 334 334 332 329 325 326 333 332
343 346 346 344 343 348 349 347 346 345 344 348 343 340 339 336 337 338 338 340 340 341 343 342 342 344 344 343 342 341 340 339 339 338 336 336 332 331 330 328 328 329 332
343 343 341 342 342 344 346 347 346 343 345 348 346 343 341 338 337 337 336 337 340 339 340 340 338 339 341 341 340 339 340 339 336 337 339 339 337 337 335 332 330 329 331
343 341 342 342 343 344 346 346 344 343 345 348 345 344 342 341 338 338 336 336 337 338 341 341 339 337 336 336 338 336 338 341 339 338 338 338 338 338 336 333 329 328 328
342 341 342 342 344 343 344 345 344 342 344 348 346 343 343 342 340 338 337 339 339 341 342 342 339 338 338 338 340 338 337 337 337 339 340 339 340 341 340 337 334 329 324
342 342 343 343 344 344 343 345 344 342 343 346 346 346 344 343 342 340 339 339 340 339 341 342 342 342 342 342 340 337 337 336 334 335 334 334 339 340 340 339 338 337 330
343 344 345 345 345 345 344 344 344 343 343 345 345 346 345 344 342 341 341 341 338 339 339 339 340 341 340 340 338 337 337 336 335 336 337 336 337 339 339 340 337 337 333
344 346 347 346 343 342 344 345 346 346 346 345 346 346 346 346 342 341 343 341 338 338 337 337 339 339 339 338 336 335 338 335 334 335 336 335 338 335 335 336 335 336 335
335 330 340 343 342 342 344 346 346 347 347 346 346 346 345 344 343 342 342 339 338 337 338 337 336 336 338 337 337 337 333 333 335 333 332 334 334 333 333 334 333 333 334
335 335 333 339 341 342 343 346 346 348 348 346 346 345 344 344 344 343 342 340 339 337 337 336 336 335 336 336 335 335 330 330 332 333 331 334 334 333 333 333 333 332 330
325 330 334 336 340 340 343 347 347 346 349 347 346 345 345 344 343 343 341 340 339 339 338 338 339 339 339 334 337 334 328 328 328 331 335 333 333 333 331 332 333 331 328
333 332 332 333 329 336 340 345 346 346 348 346 346 346 345 344 343 341 340 340 338 338 338 339 339 333 334 325 328 331 330 329 330 328 330 329 333 330 330 331 333 331 327
329 327 331 330 331 324 330 342 344 348 347 347 346 346 346 344 343 343 341 339 336 336 335 334 334 333 331 322 322 326 326 327 327 330 329 328 330 328 328 327 329 329 328
334 335 332 333 338 340 345 347 347 346 346 346 347 347 348 342 340 339 335 339 336 336 334 334 335 333 331 319 318 322 320 324 330 329 330 331 328 326 327 326 326 328 331
329 332 333 337 336 337 342 345 343 346 346 347 346 347 342 329 330 329 327 330 334 335 336 336 335 333 329 316 316 320 320 321 327 330 331 330 328 324 322 328 324 322 322
327 327 329 332 332 335 338 341 339 336 335 339 345 338 335 332 325 320 324 326 325 324 338 337 336 330 328 313 313 319 320 318 321 323 325 324 322 317 319 327 323 320 322
321 323 323 325 327 331 332 335 334 331 332 333 331 329 333 333 326 325 326 324 324 324 336 335 334 334 329 319 310 312 321 320 320 322 324 324 315 311 312 316 324 322 321
320 322 321 321 324 327 328 328 332 330 329 326 325 325 328 331 329 326 326 321 324 323 334 333 333 333 330 318 309 308 315 320 322 321 321 320 311 307 307 312 310 308 313
318 319 319 318 321 323 324 325 331 330 324 321 320 319 323 327 327 325 324 323 322 330 334 333 331 330 329 323 310 307 308 313 321 323 317 310 305 307 309 311 309 308 312
317 317 315 316 317 320 321 321 324 330 321 319 317 319 320 321 320 323 323 322 323 324 331 331 330 330 330 324 318 316 312 313 317 317 317 313 311 311 313 313 310 310 310
315 315 314 314 315 319 318 319 321 324 326 319 318 320 319 325 321 321 319 322 328 331 332 333 332 331 329 326 316 315 318 319 315 316 319 315 313 314 313 315 316 313 310
314 313 312 313 315 316 317 318 319 320 320 326 327 324 327 325 328 324 321 309 306 308 308 310 322 323 314 308 308 301 302 302 304 320 321 320 321 320 321 323 323 322 319
Wind_Speed
15 16 16 16 15 13 13 12 11 9 6 3 3 2 3 3 2 4 6 7 6 7 6 4 4 4 4 4 4 4 5 3 2 1 1 3 4 5 3 2 3 3 3
16 16 16 16 16 16 15 14 12 11 7 4 3 3 3 3 2 3 4 5 6 6 5 6 6 5 3 5 5 4 2 3 4 3 1 2 4 2 3 2 0 1 1
22 19 18 17 15 16 16 15 13 12 9 7 3 2 2 1 2 1 2 4 6 6 6 7 5 3 4 5 5 4 5 4 2 4 4 2 4 1 1 3 2 3 3
20 19 19 17 17 16 14 14 13 12 9 8 6 6 5 4 4 4 3 4 5 5 5 7 8 8 5 5 5 4 3 3 4 2 3 2 4 4 1 1 1 1 3
24 23 21 19 14 14 13 12 12 10 7 8 7 6 5 4 3 2 5 4 4 5 5 6 6 9 5 4 5 4 5 4 3 4 2 3 1 2 2 2 3 1 1
21 18 15 13 12 11 12 12 13 11 8 9 8 8 8 6 4 3 4 4 4 4 5 5 6 7 6 6 6 6 6 5 5 4 4 4 4 3 3 3 3 3 1
20 19 19 15 14 14 13 12 13 10 10 9 9 8 9 8 8 7 4 5 4 3 6 6 5 4 5 6 5 5 5 5 4 5 3 4 4 3 3 3 2 2 2
19 20 20 17 16 15 13 13 13 10 10 9 10 7 8 5 5 6 4 4 4 4 5 5 5 5 5 5 5 3 4 5 4 6 5 4 4 4 4 4 4 2 1
19 21 17 15 15 15 15 14 13 11 11 10 8 7 6 6 6 6 4 3 4 3 5 5 5 6 6 6 5 4 5 4 4 4 4 3 4 4 4 4 4 5 4
16 17 16 15 14 14 13 13 13 13 11 9 7 7 7 6 6 5 5 4 4 3 5 5 5 5 5 5 5 4 5 5 4 4 5 4 3 4 4 5 5 6 4
18 18 16 16 15 14 14 14 12 11 9 9 7 6 6 6 6 6 6 5 5 6 6 6 6 7 6 6 6 6 5 6 6 5 6 6 4 3 4 3 2 4 4
10 13 16 16 15 14 13 15 12 12 11 9 7 6 6 6 6 6 6 7 7 5 7 6 6 7 6 6 6 5 4 5 6 6 5 6 3 4 3 3 4 4 5
11 10 9 14 13 12 11 12 12 12 9 7 7 7 7 7 8 6 5 6 6 5 4 5 6 5 6 6 6 6 6 5 6 6 6 6 5 3 3 4 3 2 3
8 2 2 12 11 12 10 11 11 11 9 9 9 9 9 9 10 8 7 6 6 7 5 4 5 6 5 5 5 6 5 4 4 3 4 5 5 5 4 2 4 6 6
18 7 3 7 10 8 9 11 10 8 11 11 11 11 10 9 8 7 8 9 8 7 7 7 5 4 4 3 4 4 5 4 3 1 4 4 4 5 4 3 6 7 5
13 9 10 16 12 7 11 9 10 11 12 12 12 10 9 8 8 7 8 9 7 6 6 7 6 6 4 5 3 4 3 3 3 5 3 3 5 4 3 3 10 8 9
10 6 15 13 26 11 10 14 9 9 11 11 11 11 12 11 10 9 8 9 9 7 6 6 5 7 6 8 6 5 2 2 2 4 5 4 2 5 4 5 8 8 7
8 3 7 10 2 6 9 8 2 7 12 12 10 9 8 3 4 9 15 11 6 9 7 7 7 6 6 10 11 9 4 2 2 1 5 6 5 4 5 5 4 4 5
7 1 1 7 6 6 2 4 5 6 4 6 8 9 10 15 12 15 11 15 20 7 6 5 7 7 7 11 11 9 4 3 3 3 3 5 5 7 7 4 5 3 1
11 10 9 9 9 6 4 5 6 6 6 5 6 12 14 11 11 10 16 3 13 15 10 7 8 9 7 11 11 9 4 4 2 1 0 3 5 8 9 6 5 5 5
10 9 8 8 11 12 11 8 5 5 2 3 3 7 8 13 12 16 13 17 12 13 16 10 8 8 8 9 12 11 6 5 4 4 3 2 5 5 5 5 6 6 4
18 15 12 12 11 12 11 9 7 3 3 3 3 4 6 5 7 14 21 15 8 12 13 10 8 6 6 9 10 11 9 8 5 5 3 2 4 6 4 2 2 4 2
11 10 9 9 11 12 9 10 9 6 1 2 3 4 4 6 6 9 10 8 3 6 7 9 6 5 4 4 10 9 9 7 4 3 4 4 6 4 4 5 7 3 0
5 5 5 8 9 8 9 9 10 7 3 2 3 4 4 4 4 3 2 3 4 5 7 6 6 5 5 5 5 5 5 4 3 2 4 2 2 5 2 1 1 2 2
4 6 8 10 13 12 12 13 14 13 6 3 2 3 2 3 4 3 2 3 4 7 10 10 7 8 6 7 8 8 7 6 5 5 3 1 1 2 1 3 3 3 3
5 6 7 8 10 10 13 13 13 12 12 5 3 3 3 2 1 3 2 11 10 9 6 9 8 3 6 14 12 11 9 9 11 3 3 3 3 3 3 3 3 2 2
Wind_Direction
163 162 158 156 158 159 154 161 163 173 161 161 162 182 209 188 194 206 199 196 198 205 212 187 176 169 189 179 215 177 184 207 140 138 299 270 267 264 320 4 261 228 178
162 161 158 158 164 163 162 163 171 171 172 167 173 166 168 225 197 184 202 207 213 220 200 185 173 173 159 198 204 199 151 193 178 160 122 321 324 30 44 8 22 331 201
168 166 167 168 162 166 166 167 171 175 175 176 154 123 77 64 116 206 208 212 208 219 206 193 166 164 223 197 199 181 175 175 188 202 149 123 229 355 356 37 350 78 89
174 167 168 174 176 172 167 165 168 173 181 172 170 176 179 174 208 194 196 209 216 242 213 196 183 179 218 202 186 170 174 149 200 234 220 149 156 182 272 201 326 27 93
175 176 178 173 174 165 168 166 166 177 175 180 191 190 182 197 191 178 176 189 193 213 213 181 170 180 191 196 191 183 185 193 186 189 166 185 157 123 144 251 247 255 354
181 174 166 158 164 167 165 167 170 185 177 179 187 187 192 185 172 191 183 181 197 205 184 159 178 184 180 191 192 200 203 202 204 200 202 189 167 181 152 199 206 191 183
170 165 163 170 169 175 174 172 175 185 185 185 188 191 196 185 183 189 192 184 191 206 198 171 167 171 184 189 186 192 205 195 189 193 194 201 196 148 182 176 172 157 171
172 166 170 173 172 176 177 181 178 186 187 190 190 190 186 184 185 191 194 212 208 206 186 181 180 181 187 192 190 190 209 201 198 203 201 179 198 184 187 173 146 162 157
165 173 171 175 174 175 181 182 180 188 191 191 186 189 190 183 186 197 190 226 242 221 195 176 191 194 193 198 192 195 209 196 200 215 217 195 198 194 201 190 168 155 179
164 171 174 179 177 179 178 181 183 186 189 190 187 192 189 189 185 174 196 221 253 214 183 183 196 199 213 206 200 202 192 185 207 201 208 213 202 204 203 203 183 191 167
170 175 179 181 179 174 175 180 184 182 179 186 181 181 187 187 179 178 183 197 182 182 189 203 198 196 208 204 189 208 208 200 207 218 226 242 245 230 217 203 174 182 158
166 176 174 176 180 179 169 178 180 184 184 180 170 183 188 180 189 200 189 173 179 181 175 182 182 190 202 193 199 210 217 222 227 227 226 233 219 234 223 209 214 192 172
88 43 278 188 185 181 172 173 183 186 175 157 169 180 198 187 195 198 200 180 169 182 190 183 192 196 200 200 212 201 195 210 213 227 205 192 180 193 200 194 205 197 162
87 228 333 270 189 188 172 181 188 181 163 177 181 186 197 198 197 183 188 179 179 175 195 207 203 210 204 211 216 207 200 181 200 194 215 160 154 184 187 186 130 124 130
191 144 355 253 228 192 183 186 187 162 182 183 183 193 195 194 199 178 174 180 185 195 194 194 208 229 204 202 195 218 195 202 227 195 169 167 173 179 191 161 157 145 128
7 55 42 5 333 16 316 192 170 180 189 186 195 187 186 188 196 187 182 182 186 202 199 195 180 171 175 177 155 177 182 168 202 194 219 151 147 150 128 165 163 160 145
26 53 106 206 278 315 330 284 175 181 201 193 203 194 192 185 195 188 197 186 181 172 209 217 177 175 173 174 149 141 193 209 207 202 177 187 198 164 145 99 131 147 148
66 143 142 187 71 4 329 280 261 252 206 200 197 197 190 230 349 26 13 277 189 181 178 197 208 175 186 174 157 153 172 235 289 265 181 186 177 207 173 154 141 158 167
61 338 212 153 189 207 279 2 36 282 268 233 212 173 89 104 93 348 355 10 338 290 185 182 192 189 182 173 164 147 163 217 225 303 165 168 178 199 187 183 163 158 226
52 25 13 13 24 16 355 59 26 15 37 331 231 124 136 146 125 212 280 320 301 295 254 194 197 191 185 173 170 150 139 208 217 205 180 151 174 187 185 180 168 174 204
61 40 9 19 7 360 1 16 78 22 326 213 191 137 173 192 197 185 201 205 188 233 246 190 186 177 186 172 173 161 154 193 185 190 166 201 203 194 196 169 172 194 176
11 6 12 14 7 4 2 337 344 313 245 227 183 178 183 191 208 189 197 215 215 194 197 180 187 172 173 150 172 167 177 180 175 175 193 167 224 213 174 119 133 131 120
360 356 4 4 7 3 353 342 336 321 15 225 196 207 242 230 227 214 207 232 159 235 204 176 170 180 163 140 147 173 169 182 160 162 174 104 148 195 181 184 173 158 182
335 331 357 18 16 5 354 345 329 321 38 274 316 324 330 306 331 309 287 182 174 197 261 168 166 177 166 155 150 166 156 151 125 84 129 135 166 161 256 285 235 240 223
344 1 5 11 9 357 358 355 347 345 322 317 261 236 218 282 183 182 243 248 237 202 173 205 167 160 188 196 171 166 168 162 175 147 138 173 227 285 285 268 248 221 222
12 10 8 8 7 355 8 357 353 352 349 347 340 276 298 309 302 148 90 45 26 360 263 161 157 81 152 143 167 151 137 148 148 145 156 166 167 189 220 216 242 222 218